Location: Cabri�res
(43.7840°N, 5.4986°E)
Time: 12:58:23
(UTC+00:00)

Cosmos 2369 Rocket - Pass Details

Date: 09 April 2020
Orbit: 829 x 852 km, 71.0° (Epoch: 26 May)

Event Time Altitude Azimuth Distance (km) Brightness Sun altitude
Rises 18:43:27 0° 330° (NNW) 3,420 6.2 -5.8°
Reaches altitude 10° 18:45:58 10° 325° (NW) 2,477 5.5 -6.3°
Maximum altitude 18:51:25 49° 252° (WSW) 1,078 3.2 -7.2°
Drops below altitude 10° 18:56:48 10° 179° (S) 2,446 4.4 -8.1°
Sets 18:59:17 0° 174° (S) 3,372 5.1 -8.5°
